Time,TemperatureF,DewpointF,PressureIn,WindDirection,WindDirectionDegrees,WindSpeedMPH,WindSpeedGustMPH,Humidity,HourlyPrecipIn,Conditions,Clouds,dailyrainin,SoftwareType,DateUTC
2013-09-11 00:01:00,67.4,60.0,29.78,SSE,157,1.0,1.0,77,0.00,,,0.00,Rainwise IP-100,2013-09-11 04:01:00,
2013-09-11 00:02:00,67.5,60.0,29.78,SSE,157,0.0,1.0,76,0.00,,,0.00,Rainwise IP-100,2013-09-11 04:02:00,
2013-09-11 00:07:00,67.6,59.0,29.78,SSE,157,1.0,2.0,75,0.00,,,0.00,Rainwise IP-100,2013-09-11 04:07:00,
2013-09-11 00:13:00,67.8,59.0,29.78,SSE,157,1.0,2.0,74,0.00,,,0.00,Rainwise IP-100,2013-09-11 04:13:00,
2013-09-11 00:18:00,67.8,59.0,29.78,SSE,157,1.0,3.0,73,0.00,,,0.00,Rainwise IP-100,2013-09-11 04:18:00,
2013-09-11 00:23:00,67.9,59.0,29.78,SSE,157,1.0,3.0,72,0.00,,,0.00,Rainwise IP-100,2013-09-11 04:23:00,
2013-09-11 00:28:00,68.1,58.0,29.78,SSE,157,2.0,3.0,71,0.00,,,0.00,Rainwise IP-100,2013-09-11 04:28:00,
2013-09-11 00:33:00,68.1,58.0,29.77,SSE,157,0.0,3.0,71,0.00,,,0.00,Rainwise IP-100,2013-09-11 04:33:00,
2013-09-11 00:38:00,68.0,58.0,29.77,SSE,157,0.0,3.0,71,0.00,,,0.00,Rainwise IP-100,2013-09-11 04:38:00,
2013-09-11 00:43:00,67.8,58.0,29.77,SSE,157,0.0,1.0,72,0.00,,,0.00,Rainwise IP-100,2013-09-11 04:43:00,
2013-09-11 00:48:00,67.7,57.0,29.77,SSE,157,2.0,2.0,71,0.00,,,0.00,Rainwise IP-100,2013-09-11 04:48:00,
2013-09-11 00:54:00,67.7,57.0,29.77,SSE,157,0.0,2.0,71,0.00,,,0.00,Rainwise IP-100,2013-09-11 04:54:00,
2013-09-11 00:59:00,67.6,59.0,29.77,SSE,157,1.0,1.0,73,0.00,,,0.00,Rainwise IP-100,2013-09-11 04:59:00,
2013-09-11 01:04:00,67.4,58.0,29.77,SSE,157,0.0,2.0,72,0.00,,,0.00,Rainwise IP-100,2013-09-11 05:04:00,
2013-09-11 01:09:00,67.6,60.0,29.77,SSE,157,0.0,2.0,76,0.00,,,0.00,Rainwise IP-100,2013-09-11 05:09:00,
2013-09-11 01:14:00,68.1,58.0,29.77,SSE,157,2.0,3.0,71,0.00,,,0.00,Rainwise IP-100,2013-09-11 05:14:00,
2013-09-11 01:19:00,68.5,59.0,29.77,SSE,157,2.0,3.0,71,0.00,,,0.00,Rainwise IP-100,2013-09-11 05:19:00,
2013-09-11 01:24:00,68.7,59.0,29.77,SSE,157,2.0,4.0,71,0.00,,,0.00,Rainwise IP-100,2013-09-11 05:24:00,
2013-09-11 01:30:00,68.7,58.0,29.77,SSE,157,2.0,3.0,70,0.00,,,0.00,Rainwise IP-100,2013-09-11 05:30:00,
2013-09-11 01:35:00,68.7,59.0,29.77,SSE,157,2.0,3.0,71,0.00,,,0.00,Rainwise IP-100,2013-09-11 05:35:00,
2013-09-11 01:40:00,68.6,58.0,29.77,SSE,157,1.0,4.0,70,0.00,,,0.00,Rainwise IP-100,2013-09-11 05:40:00,
2013-09-11 01:45:00,68.3,57.0,29.77,SSE,157,2.0,4.0,69,0.00,,,0.00,Rainwise IP-100,2013-09-11 05:45:00,
2013-09-11 01:50:00,68.3,57.0,29.77,SSE,157,1.0,4.0,69,0.00,,,0.00,Rainwise IP-100,2013-09-11 05:50:00,
2013-09-11 01:55:00,68.3,57.0,29.76,SSE,157,3.0,4.0,69,0.00,,,0.00,Rainwise IP-100,2013-09-11 05:55:00,
2013-09-11 02:00:00,68.3,57.0,29.76,SSE,157,1.0,4.0,68,0.00,,,0.00,Rainwise IP-100,2013-09-11 06:00:00,
2013-09-11 02:05:00,68.3,57.0,29.76,SSE,157,1.0,4.0,68,0.00,,,0.00,Rainwise IP-100,2013-09-11 06:05:00,
2013-09-11 02:11:00,68.2,57.0,29.76,SSE,157,1.0,3.0,68,0.00,,,0.00,Rainwise IP-100,2013-09-11 06:11:00,
2013-09-11 02:16:00,68.0,57.0,29.76,SSE,157,2.0,3.0,68,0.00,,,0.00,Rainwise IP-100,2013-09-11 06:16:00,
2013-09-11 02:21:00,67.9,57.0,29.76,SSE,157,0.0,2.0,68,0.00,,,0.00,Rainwise IP-100,2013-09-11 06:21:00,
2013-09-11 02:26:00,67.7,56.0,29.76,SSE,157,0.0,3.0,68,0.00,,,0.00,Rainwise IP-100,2013-09-11 06:26:00,
2013-09-11 02:31:00,67.9,57.0,29.76,SSE,157,0.0,2.0,69,0.00,,,0.00,Rainwise IP-100,2013-09-11 06:31:00,
2013-09-11 02:36:00,67.9,57.0,29.76,SSE,157,0.0,3.0,69,0.00,,,0.00,Rainwise IP-100,2013-09-11 06:36:00,
2013-09-11 02:41:00,67.7,56.0,29.76,SSE,157,0.0,5.0,68,0.00,,,0.00,Rainwise IP-100,2013-09-11 06:41:00,
2013-09-11 02:47:00,67.6,56.0,29.76,SSE,157,0.0,2.0,68,0.00,,,0.00,Rainwise IP-100,2013-09-11 06:47:00,
2013-09-11 02:52:00,67.7,56.0,29.77,SSE,157,0.0,2.0,68,0.00,,,0.00,Rainwise IP-100,2013-09-11 06:52:00,
2013-09-11 02:57:00,67.7,56.0,29.77,SSE,157,0.0,0.0,68,0.00,,,0.00,Rainwise IP-100,2013-09-11 06:57:00,
2013-09-11 03:02:00,67.7,56.0,29.77,NW,315,0.0,2.0,68,0.00,,,0.00,Rainwise IP-100,2013-09-11 07:02:00,
2013-09-11 03:07:00,67.8,56.0,29.77,NW,315,0.0,0.0,68,0.00,,,0.00,Rainwise IP-100,2013-09-11 07:07:00,
2013-09-11 03:12:00,67.9,57.0,29.77,NW,315,0.0,0.0,68,0.00,,,0.00,Rainwise IP-100,2013-09-11 07:12:00,
2013-09-11 03:18:00,67.8,56.0,29.77,NW,315,0.0,0.0,68,0.00,,,0.00,Rainwise IP-100,2013-09-11 07:18:00,
2013-09-11 03:23:00,67.7,56.0,29.77,NW,315,0.0,1.0,68,0.00,,,0.00,Rainwise IP-100,2013-09-11 07:23:00,
2013-09-11 03:28:00,67.7,56.0,29.77,NW,315,0.0,0.0,68,0.00,,,0.00,Rainwise IP-100,2013-09-11 07:28:00,
2013-09-11 03:33:00,67.8,56.0,29.77,NW,315,0.0,0.0,68,0.00,,,0.00,Rainwise IP-100,2013-09-11 07:33:00,
2013-09-11 03:38:00,67.7,56.0,29.77,NW,315,0.0,0.0,68,0.00,,,0.00,Rainwise IP-100,2013-09-11 07:38:00,
2013-09-11 03:43:00,67.6,56.0,29.77,NW,315,0.0,0.0,68,0.00,,,0.00,Rainwise IP-100,2013-09-11 07:43:00,
2013-09-11 03:49:00,67.7,56.0,29.77,NW,315,0.0,0.0,68,0.00,,,0.00,Rainwise IP-100,2013-09-11 07:49:00,
2013-09-11 03:54:00,67.7,56.0,29.77,NW,315,0.0,0.0,68,0.00,,,0.00,Rainwise IP-100,2013-09-11 07:54:00,
2013-09-11 03:59:00,67.7,56.0,29.77,NW,315,0.0,0.0,68,0.00,,,0.00,Rainwise IP-100,2013-09-11 07:59:00,
2013-09-11 04:04:00,67.8,56.0,29.77,NW,315,0.0,0.0,67,0.00,,,0.00,Rainwise IP-100,2013-09-11 08:04:00,
2013-09-11 04:09:00,67.8,56.0,29.77,NW,315,0.0,0.0,67,0.00,,,0.00,Rainwise IP-100,2013-09-11 08:09:00,
2013-09-11 04:14:00,68.2,57.0,29.77,NW,315,0.0,0.0,68,0.00,,,0.00,Rainwise IP-100,2013-09-11 08:14:00,
2013-09-11 04:19:00,68.1,57.0,29.77,NW,315,0.0,0.0,68,0.00,,,0.00,Rainwise IP-100,2013-09-11 08:19:00,
2013-09-11 04:24:00,68.0,57.0,29.77,NW,315,0.0,0.0,70,0.00,,,0.00,Rainwise IP-100,2013-09-11 08:24:00,
2013-09-11 04:30:00,67.9,57.0,29.77,NW,315,0.0,0.0,70,0.00,,,0.00,Rainwise IP-100,2013-09-11 08:30:00,
2013-09-11 04:35:00,67.9,57.0,29.77,NW,315,0.0,1.0,70,0.00,,,0.00,Rainwise IP-100,2013-09-11 08:35:00,
2013-09-11 04:40:00,67.9,58.0,29.77,NW,315,0.0,0.0,71,0.00,,,0.00,Rainwise IP-100,2013-09-11 08:40:00,
2013-09-11 04:45:00,68.0,58.0,29.77,NW,315,0.0,0.0,71,0.00,,,0.00,Rainwise IP-100,2013-09-11 08:45:00,
2013-09-11 04:50:00,68.3,56.0,29.78,NW,315,0.0,0.0,66,0.00,,,0.00,Rainwise IP-100,2013-09-11 08:50:00,
2013-09-11 04:55:00,68.4,57.0,29.78,NW,315,0.0,0.0,67,0.00,,,0.00,Rainwise IP-100,2013-09-11 08:55:00,
2013-09-11 05:00:00,68.2,56.0,29.78,NW,315,0.0,0.0,67,0.00,,,0.00,Rainwise IP-100,2013-09-11 09:00:00,
2013-09-11 05:06:00,68.1,56.0,29.78,NW,315,0.0,0.0,67,0.00,,,0.00,Rainwise IP-100,2013-09-11 09:06:00,
2013-09-11 05:11:00,68.2,56.0,29.78,South,180,2.0,2.0,66,0.00,,,0.00,Rainwise IP-100,2013-09-11 09:11:00,
2013-09-11 05:16:00,68.4,57.0,29.78,South,180,0.0,3.0,67,0.00,,,0.00,Rainwise IP-100,2013-09-11 09:16:00,
2013-09-11 05:21:00,68.2,56.0,29.78,South,180,0.0,1.0,66,0.00,,,0.00,Rainwise IP-100,2013-09-11 09:21:00,
2013-09-11 05:26:00,68.5,57.0,29.78,South,180,2.0,2.0,67,0.00,,,0.00,Rainwise IP-100,2013-09-11 09:26:00,
2013-09-11 05:31:00,68.7,57.0,29.78,South,180,0.0,2.0,68,0.00,,,0.00,Rainwise IP-100,2013-09-11 09:31:00,
2013-09-11 05:36:00,68.5,57.0,29.78,South,180,0.0,0.0,68,0.00,,,0.00,Rainwise IP-100,2013-09-11 09:36:00,
2013-09-11 05:41:00,68.4,57.0,29.78,South,180,0.0,2.0,67,0.00,,,0.00,Rainwise IP-100,2013-09-11 09:41:00,
2013-09-11 05:47:00,68.5,57.0,29.78,South,180,1.0,2.0,68,0.00,,,0.00,Rainwise IP-100,2013-09-11 09:47:00,
2013-09-11 05:52:00,68.8,57.0,29.79,South,180,1.0,2.0,69,0.00,,,0.00,Rainwise IP-100,2013-09-11 09:52:00,
2013-09-11 05:57:00,68.7,57.0,29.79,South,180,0.0,2.0,68,0.00,,,0.00,Rainwise IP-100,2013-09-11 09:57:00,
2013-09-11 06:02:00,68.5,56.0,29.79,South,180,0.0,0.0,66,0.00,,,0.00,Rainwise IP-100,2013-09-11 10:02:00,
2013-09-11 06:07:00,68.3,56.0,29.80,South,180,0.0,0.0,66,0.00,,,0.00,Rainwise IP-100,2013-09-11 10:07:00,
2013-09-11 06:12:00,68.3,56.0,29.79,South,180,0.0,1.0,66,0.00,,,0.00,Rainwise IP-100,2013-09-11 10:12:00,
2013-09-11 06:17:00,68.6,57.0,29.80,South,180,0.0,2.0,69,0.00,,,0.00,Rainwise IP-100,2013-09-11 10:17:00,
2013-09-11 06:23:00,68.7,57.0,29.80,SE,135,1.0,2.0,68,0.00,,,0.00,Rainwise IP-100,2013-09-11 10:23:00,
2013-09-11 06:28:00,68.7,57.0,29.80,SE,135,2.0,3.0,68,0.00,,,0.00,Rainwise IP-100,2013-09-11 10:28:00,
2013-09-11 06:33:00,68.7,57.0,29.80,SE,135,2.0,3.0,68,0.00,,,0.00,Rainwise IP-100,2013-09-11 10:33:00,
2013-09-11 06:38:00,68.6,57.0,29.80,SE,135,1.0,3.0,68,0.00,,,0.00,Rainwise IP-100,2013-09-11 10:38:00,
2013-09-11 06:43:00,68.6,57.0,29.80,SE,135,0.0,1.0,68,0.00,,,0.00,Rainwise IP-100,2013-09-11 10:43:00,
2013-09-11 06:48:00,68.6,57.0,29.80,SE,135,1.0,2.0,68,0.00,,,0.00,Rainwise IP-100,2013-09-11 10:48:00,
2013-09-11 06:53:00,68.6,57.0,29.81,SE,135,3.0,3.0,68,0.00,,,0.00,Rainwise IP-100,2013-09-11 10:53:00,
2013-09-11 06:58:00,68.7,57.0,29.81,SE,135,1.0,3.0,68,0.00,,,0.00,Rainwise IP-100,2013-09-11 10:58:00,
2013-09-11 07:04:00,68.8,57.0,29.81,SE,135,1.0,3.0,68,0.00,,,0.00,Rainwise IP-100,2013-09-11 11:04:00,
2013-09-11 07:09:00,68.8,57.0,29.81,SE,135,3.0,3.0,68,0.00,,,0.00,Rainwise IP-100,2013-09-11 11:09:00,
2013-09-11 07:14:00,68.9,57.0,29.81,SE,135,0.0,3.0,68,0.00,,,0.00,Rainwise IP-100,2013-09-11 11:14:00,
2013-09-11 07:19:00,68.9,57.0,29.81,SE,135,1.0,3.0,68,0.00,,,0.00,Rainwise IP-100,2013-09-11 11:19:00,
2013-09-11 07:24:00,68.9,57.0,29.81,SE,135,1.0,3.0,68,0.00,,,0.00,Rainwise IP-100,2013-09-11 11:24:00,
2013-09-11 07:29:00,69.4,58.0,29.81,SE,135,3.0,3.0,68,0.00,,,0.00,Rainwise IP-100,2013-09-11 11:29:00,
2013-09-11 07:34:00,69.6,59.0,29.81,SE,135,1.0,4.0,68,0.00,,,0.00,Rainwise IP-100,2013-09-11 11:34:00,
2013-09-11 07:40:00,69.7,59.0,29.81,SE,135,2.0,3.0,68,0.00,,,0.00,Rainwise IP-100,2013-09-11 11:40:00,
2013-09-11 07:45:00,69.8,59.0,29.81,SE,135,1.0,3.0,68,0.00,,,0.00,Rainwise IP-100,2013-09-11 11:45:00,
2013-09-11 07:50:00,69.9,59.0,29.81,SE,135,0.0,3.0,68,0.00,,,0.00,Rainwise IP-100,2013-09-11 11:50:00,
2013-09-11 07:55:00,70.0,59.0,29.81,SE,135,2.0,4.0,68,0.00,,,0.00,Rainwise IP-100,2013-09-11 11:55:00,
2013-09-11 08:00:00,70.3,59.0,29.81,SE,135,2.0,3.0,68,0.00,,,0.00,Rainwise IP-100,2013-09-11 12:00:00,
2013-09-11 08:05:00,70.4,59.0,29.81,SSE,157,3.0,4.0,68,0.00,,,0.00,Rainwise IP-100,2013-09-11 12:05:00,
2013-09-11 08:10:00,70.5,59.0,29.82,East,90,4.0,4.0,68,0.00,,,0.00,Rainwise IP-100,2013-09-11 12:10:00,
2013-09-11 08:15:00,70.6,59.0,29.82,SSE,157,2.0,6.0,68,0.00,,,0.00,Rainwise IP-100,2013-09-11 12:15:00,
2013-09-11 08:21:00,70.6,59.0,29.82,SSE,157,1.0,3.0,67,0.00,,,0.00,Rainwise IP-100,2013-09-11 12:21:00,
2013-09-11 08:26:00,70.7,59.0,29.82,SE,135,1.0,4.0,67,0.00,,,0.00,Rainwise IP-100,2013-09-11 12:26:00,
2013-09-11 08:31:00,70.8,59.0,29.82,SSE,157,1.0,6.0,67,0.00,,,0.00,Rainwise IP-100,2013-09-11 12:31:00,
2013-09-11 08:36:00,70.9,59.0,29.81,SSW,202,4.0,6.0,67,0.00,,,0.00,Rainwise IP-100,2013-09-11 12:36:00,
2013-09-11 08:41:00,71.1,59.0,29.82,SSE,157,2.0,6.0,67,0.00,,,0.00,Rainwise IP-100,2013-09-11 12:41:00,
2013-09-11 08:46:00,71.2,60.0,29.82,SSE,157,3.0,5.0,67,0.00,,,0.00,Rainwise IP-100,2013-09-11 12:46:00,
2013-09-11 08:51:00,71.6,60.0,29.82,SE,135,4.0,6.0,67,0.00,,,0.00,Rainwise IP-100,2013-09-11 12:51:00,
2013-09-11 08:57:00,71.7,59.0,29.82,SE,135,3.0,6.0,66,0.00,,,0.00,Rainwise IP-100,2013-09-11 12:57:00,
2013-09-11 09:02:00,71.8,59.0,29.82,SE,135,0.0,5.0,66,0.00,,,0.00,Rainwise IP-100,2013-09-11 13:02:00,
2013-09-11 09:07:00,71.9,59.0,29.82,SE,135,2.0,3.0,65,0.00,,,0.00,Rainwise IP-100,2013-09-11 13:07:00,
2013-09-11 09:12:00,71.9,59.0,29.82,SE,135,0.0,7.0,65,0.00,,,0.00,Rainwise IP-100,2013-09-11 13:12:00,
2013-09-11 09:17:00,72.2,60.0,29.82,South,180,4.0,6.0,65,0.00,,,0.00,Rainwise IP-100,2013-09-11 13:17:00,
2013-09-11 09:22:00,72.5,60.0,29.82,SSE,157,1.0,5.0,65,0.00,,,0.00,Rainwise IP-100,2013-09-11 13:22:00,
2013-09-11 09:27:00,72.7,60.0,29.82,SE,135,3.0,8.0,64,0.00,,,0.00,Rainwise IP-100,2013-09-11 13:27:00,
2013-09-11 09:32:00,72.8,59.0,29.81,SE,135,1.0,8.0,63,0.00,,,0.00,Rainwise IP-100,2013-09-11 13:32:00,
2013-09-11 09:38:00,73.1,60.0,29.82,SSE,157,1.0,6.0,63,0.00,,,0.00,Rainwise IP-100,2013-09-11 13:38:00,
2013-09-11 09:43:00,73.1,59.0,29.81,ESE,112,2.0,3.0,61,0.00,,,0.00,Rainwise IP-100,2013-09-11 13:43:00,
2013-09-11 09:48:00,73.4,59.0,29.81,SE,135,0.0,7.0,60,0.00,,,0.00,Rainwise IP-100,2013-09-11 13:48:00,
2013-09-11 09:53:00,73.6,59.0,29.81,SSW,202,3.0,5.0,60,0.00,,,0.00,Rainwise IP-100,2013-09-11 13:53:00,
2013-09-11 09:58:00,73.7,59.0,29.81,ESE,112,0.0,5.0,60,0.00,,,0.00,Rainwise IP-100,2013-09-11 13:58:00,
2013-09-11 10:03:00,73.8,58.0,29.81,SSE,157,1.0,5.0,58,0.00,,,0.00,Rainwise IP-100,2013-09-11 14:03:00,
2013-09-11 10:08:00,74.2,57.0,29.81,SE,135,2.0,4.0,56,0.00,,,0.00,Rainwise IP-100,2013-09-11 14:08:00,
2013-09-11 10:14:00,74.4,58.0,29.80,NE,45,5.0,6.0,57,0.00,,,0.00,Rainwise IP-100,2013-09-11 14:14:00,
2013-09-11 10:19:00,74.9,64.0,29.80,ESE,112,3.0,7.0,69,0.00,,,0.00,Rainwise IP-100,2013-09-11 14:19:00,
2013-09-11 10:24:00,75.2,65.0,29.80,ESE,112,0.0,5.0,71,0.00,,,0.00,Rainwise IP-100,2013-09-11 14:24:00,
2013-09-11 10:29:00,75.5,68.0,29.80,SSE,157,2.0,6.0,77,0.00,,,0.00,Rainwise IP-100,2013-09-11 14:29:00,
2013-09-11 10:34:00,76.1,70.0,29.80,SE,135,3.0,9.0,83,0.00,,,0.00,Rainwise IP-100,2013-09-11 14:34:00,
2013-09-11 10:39:00,76.5,73.0,29.80,ESE,112,0.0,7.0,89,0.00,,,0.00,Rainwise IP-100,2013-09-11 14:39:00,
2013-09-11 10:44:00,76.8,76.0,29.80,SE,135,2.0,7.0,100,0.00,,,0.00,Rainwise IP-100,2013-09-11 14:44:00,
2013-09-11 10:49:00,77.7,77.0,29.80,SSE,157,2.0,5.0,100,0.00,,,0.00,Rainwise IP-100,2013-09-11 14:49:00,
2013-09-11 10:55:00,78.2,77.0,29.79,SSE,157,2.0,7.0,98,0.00,,,0.00,Rainwise IP-100,2013-09-11 14:55:00,
2013-09-11 11:00:00,78.4,78.0,29.79,SE,135,1.0,7.0,100,0.00,,,0.00,Rainwise IP-100,2013-09-11 15:00:00,
2013-09-11 11:05:00,78.9,79.0,29.79,ESE,112,3.0,7.0,100,0.00,,,0.00,Rainwise IP-100,2013-09-11 15:05:00,
2013-09-11 11:10:00,79.3,79.0,29.80,SE,135,3.0,6.0,100,0.00,,,0.00,Rainwise IP-100,2013-09-11 15:10:00,
2013-09-11 11:15:00,79.8,79.0,29.79,South,180,3.0,6.0,100,0.00,,,0.00,Rainwise IP-100,2013-09-11 15:15:00,
2013-09-11 11:20:00,80.0,80.0,29.80,SE,135,3.0,6.0,100,0.00,,,0.00,Rainwise IP-100,2013-09-11 15:20:00,
2013-09-11 11:25:00,80.2,80.0,29.79,SE,135,1.0,7.0,100,0.00,,,0.00,Rainwise IP-100,2013-09-11 15:25:00,
2013-09-11 11:31:00,80.4,80.0,29.79,SE,135,2.0,7.0,100,0.00,,,0.00,Rainwise IP-100,2013-09-11 15:31:00,
2013-09-11 11:36:00,80.8,80.0,29.79,SE,135,4.0,7.0,100,0.00,,,0.00,Rainwise IP-100,2013-09-11 15:36:00,
2013-09-11 11:41:00,81.2,81.0,29.80,SE,135,5.0,11.0,100,0.00,,,0.00,Rainwise IP-100,2013-09-11 15:41:00,
2013-09-11 11:46:00,81.5,81.0,29.80,SSE,157,5.0,6.0,100,0.00,,,0.00,Rainwise IP-100,2013-09-11 15:46:00,
2013-09-11 11:51:00,82.2,82.0,29.79,SE,135,5.0,6.0,100,0.00,,,0.00,Rainwise IP-100,2013-09-11 15:51:00,
2013-09-11 11:56:00,83.0,83.0,29.79,SSE,157,3.0,6.0,100,0.00,,,0.00,Rainwise IP-100,2013-09-11 15:56:00,
2013-09-11 12:01:00,83.8,82.0,29.79,South,180,5.0,7.0,96,0.00,,,0.00,Rainwise IP-100,2013-09-11 16:01:00,
2013-09-11 12:06:00,84.5,82.0,29.80,South,180,3.0,7.0,94,0.00,,,0.00,Rainwise IP-100,2013-09-11 16:06:00,
2013-09-11 12:12:00,84.9,81.0,29.80,South,180,2.0,6.0,89,0.00,,,0.00,Rainwise IP-100,2013-09-11 16:12:00,
2013-09-11 12:17:00,85.6,82.0,29.80,SE,135,5.0,6.0,90,0.00,,,0.00,Rainwise IP-100,2013-09-11 16:17:00,
2013-09-11 12:22:00,85.8,83.0,29.80,SE,135,4.0,6.0,92,0.00,,,0.00,Rainwise IP-100,2013-09-11 16:22:00,
2013-09-11 12:27:00,86.2,81.0,29.80,SE,135,2.0,6.0,86,0.00,,,0.00,Rainwise IP-100,2013-09-11 16:27:00,
2013-09-11 12:32:00,86.9,86.0,29.80,SE,135,3.0,5.0,98,0.00,,,0.00,Rainwise IP-100,2013-09-11 16:32:00,
2013-09-11 12:37:00,87.1,80.0,29.80,SE,135,1.0,6.0,82,0.00,,,0.00,Rainwise IP-100,2013-09-11 16:37:00,
2013-09-11 12:42:00,87.3,82.0,29.79,SE,135,3.0,6.0,86,0.00,,,0.00,Rainwise IP-100,2013-09-11 16:42:00,
2013-09-11 12:48:00,87.9,85.0,29.79,SSE,157,1.0,6.0,91,0.00,,,0.00,Rainwise IP-100,2013-09-11 16:48:00,
2013-09-11 12:53:00,87.9,82.0,29.79,SE,135,4.0,6.0,82,0.00,,,0.00,Rainwise IP-100,2013-09-11 16:53:00,
2013-09-11 12:58:00,87.7,80.0,29.79,ESE,112,5.0,7.0,80,0.00,,,0.00,Rainwise IP-100,2013-09-11 16:58:00,
2013-09-11 13:03:00,88.0,82.0,29.79,SSE,157,3.0,6.0,84,0.00,,,0.00,Rainwise IP-100,2013-09-11 17:03:00,
2013-09-11 13:08:00,88.6,80.0,29.79,ESE,112,2.0,6.0,77,0.00,,,0.00,Rainwise IP-100,2013-09-11 17:08:00,
2013-09-11 13:13:00,89.3,82.0,29.79,East,90,3.0,6.0,80,0.00,,,0.00,Rainwise IP-100,2013-09-11 17:13:00,
2013-09-11 13:18:00,89.5,79.0,29.79,South,180,2.0,8.0,72,0.00,,,0.00,Rainwise IP-100,2013-09-11 17:18:00,
2013-09-11 13:23:00,89.4,80.0,29.79,SSE,157,2.0,9.0,74,0.00,,,0.00,Rainwise IP-100,2013-09-11 17:23:00,
2013-09-11 13:29:00,89.3,80.0,29.79,SSE,157,5.0,9.0,75,0.00,,,0.00,Rainwise IP-100,2013-09-11 17:29:00,
2013-09-11 13:34:00,89.6,80.0,29.79,SE,135,3.0,7.0,75,0.00,,,0.00,Rainwise IP-100,2013-09-11 17:34:00,
2013-09-11 13:39:00,90.2,82.0,29.79,SSE,157,4.0,6.0,79,0.00,,,0.00,Rainwise IP-100,2013-09-11 17:39:00,
2013-09-11 13:44:00,90.6,83.0,29.79,SSW,202,2.0,7.0,80,0.00,,,0.00,Rainwise IP-100,2013-09-11 17:44:00,
2013-09-11 13:49:00,90.6,82.0,29.79,SE,135,3.0,6.0,77,0.00,,,0.00,Rainwise IP-100,2013-09-11 17:49:00,
2013-09-11 13:54:00,90.2,80.0,29.79,ESE,112,1.0,9.0,73,0.00,,,0.00,Rainwise IP-100,2013-09-11 17:54:00,
2013-09-11 13:59:00,90.5,83.0,29.78,SSE,157,3.0,6.0,80,0.00,,,0.00,Rainwise IP-100,2013-09-11 17:59:00,
2013-09-11 14:05:00,90.7,81.0,29.78,SE,135,2.0,7.0,73,0.00,,,0.00,Rainwise IP-100,2013-09-11 18:05:00,
2013-09-11 14:10:00,91.3,82.0,29.78,SSE,157,4.0,7.0,74,0.00,,,0.00,Rainwise IP-100,2013-09-11 18:10:00,
2013-09-11 14:15:00,91.1,80.0,29.78,ESE,112,6.0,6.0,72,0.00,,,0.00,Rainwise IP-100,2013-09-11 18:15:00,
2013-09-11 14:20:00,90.9,81.0,29.78,South,180,4.0,6.0,73,0.00,,,0.00,Rainwise IP-100,2013-09-11 18:20:00,
2013-09-11 14:25:00,89.7,80.0,29.78,South,180,4.0,7.0,75,0.00,,,0.00,Rainwise IP-100,2013-09-11 18:25:00,
2013-09-11 14:30:00,89.2,82.0,29.78,SSW,202,3.0,7.0,79,0.00,,,0.00,Rainwise IP-100,2013-09-11 18:30:00,
2013-09-11 14:35:00,88.7,82.0,29.78,East,90,1.0,6.0,81,0.00,,,0.00,Rainwise IP-100,2013-09-11 18:35:00,
2013-09-11 14:40:00,88.0,81.0,29.77,SSW,202,2.0,6.0,80,0.00,,,0.00,Rainwise IP-100,2013-09-11 18:40:00,
2013-09-11 14:46:00,87.9,82.0,29.76,SW,225,0.0,6.0,84,0.00,,,0.00,Rainwise IP-100,2013-09-11 18:46:00,
2013-09-11 14:51:00,87.8,81.0,29.76,SW,225,2.0,7.0,82,0.00,,,0.00,Rainwise IP-100,2013-09-11 18:51:00,
2013-09-11 14:56:00,87.8,81.0,29.76,South,180,0.0,6.0,82,0.00,,,0.00,Rainwise IP-100,2013-09-11 18:56:00,
2013-09-11 15:01:00,87.9,83.0,29.76,ESE,112,2.0,6.0,86,0.00,,,0.00,Rainwise IP-100,2013-09-11 19:01:00,
2013-09-11 15:06:00,87.5,80.0,29.76,SSE,157,1.0,7.0,80,0.00,,,0.00,Rainwise IP-100,2013-09-11 19:06:00,
2013-09-11 15:11:00,87.7,82.0,29.75,South,180,6.0,9.0,84,0.00,,,0.00,Rainwise IP-100,2013-09-11 19:11:00,
2013-09-11 15:16:00,88.3,81.0,29.75,SE,135,5.0,6.0,80,0.00,,,0.00,Rainwise IP-100,2013-09-11 19:16:00,
2013-09-11 15:22:00,88.7,81.0,29.75,SSE,157,1.0,6.0,79,0.00,,,0.00,Rainwise IP-100,2013-09-11 19:22:00,
2013-09-11 15:27:00,88.9,81.0,29.75,SW,225,4.0,5.0,79,0.00,,,0.00,Rainwise IP-100,2013-09-11 19:27:00,
2013-09-11 15:32:00,88.9,82.0,29.75,SE,135,1.0,6.0,80,0.00,,,0.00,Rainwise IP-100,2013-09-11 19:32:00,
2013-09-11 15:37:00,88.9,81.0,29.75,SE,135,1.0,6.0,78,0.00,,,0.00,Rainwise IP-100,2013-09-11 19:37:00,
2013-09-11 15:42:00,89.5,83.0,29.75,SSE,157,2.0,6.0,82,0.00,,,0.00,Rainwise IP-100,2013-09-11 19:42:00,
2013-09-11 15:47:00,89.7,82.0,29.75,SE,135,3.0,6.0,80,0.00,,,0.00,Rainwise IP-100,2013-09-11 19:47:00,
2013-09-11 15:52:00,89.4,84.0,29.74,SE,135,1.0,4.0,84,0.00,,,0.00,Rainwise IP-100,2013-09-11 19:52:00,
2013-09-11 15:57:00,88.4,79.0,29.74,South,180,2.0,6.0,74,0.00,,,0.00,Rainwise IP-100,2013-09-11 19:57:00,
2013-09-11 16:03:00,87.9,82.0,29.74,East,90,1.0,4.0,82,0.00,,,0.00,Rainwise IP-100,2013-09-11 20:03:00,
2013-09-11 16:08:00,87.1,80.0,29.74,East,90,2.0,4.0,82,0.00,,,0.00,Rainwise IP-100,2013-09-11 20:08:00,
2013-09-11 16:13:00,86.1,77.0,29.73,East,90,4.0,6.0,76,0.00,,,0.00,Rainwise IP-100,2013-09-11 20:13:00,
2013-09-11 16:18:00,85.5,79.0,29.73,East,90,3.0,6.0,82,0.00,,,0.00,Rainwise IP-100,2013-09-11 20:18:00,
2013-09-11 16:23:00,84.9,78.0,29.72,East,90,6.0,6.0,82,0.00,,,0.00,Rainwise IP-100,2013-09-11 20:23:00,
2013-09-11 16:28:00,84.9,80.0,29.72,ESE,112,2.0,6.0,88,0.00,,,0.00,Rainwise IP-100,2013-09-11 20:28:00,
2013-09-11 16:35:00,84.8,78.0,29.71,East,90,2.0,6.0,82,0.00,,,0.00,Rainwise IP-100,2013-09-11 20:35:00,
2013-09-11 16:41:00,84.2,78.0,29.71,SSE,157,0.0,3.0,82,0.00,,,0.00,Rainwise IP-100,2013-09-11 20:41:00,
2013-09-11 16:46:00,84.1,76.0,29.74,West,270,3.0,6.0,76,0.00,,,0.00,Rainwise IP-100,2013-09-11 20:46:00,
2013-09-11 16:51:00,81.8,73.0,29.76,SSW,202,3.0,8.0,76,0.18,,,0.06,Rainwise IP-100,2013-09-11 20:51:00,
2013-09-11 16:56:00,76.8,76.0,29.75,North,360,3.0,7.0,97,0.84,,,0.14,Rainwise IP-100,2013-09-11 20:56:00,
2013-09-11 17:02:00,74.0,74.0,29.73,NE,45,2.0,13.0,100,0.42,,,0.14,Rainwise IP-100,2013-09-11 21:02:00,
2013-09-11 17:07:00,73.7,73.0,29.72,NNE,22,7.0,12.0,100,0.00,,,0.14,Rainwise IP-100,2013-09-11 21:07:00,
2013-09-11 17:12:00,73.9,74.0,29.72,WNW,292,6.0,10.0,100,0.00,,,0.14,Rainwise IP-100,2013-09-11 21:12:00,
2013-09-11 17:17:00,74.4,74.0,29.72,NNW,337,6.0,9.0,100,0.00,,,0.14,Rainwise IP-100,2013-09-11 21:17:00,
2013-09-11 17:22:00,74.4,74.0,29.71,North,360,0.0,8.0,100,0.00,,,0.14,Rainwise IP-100,2013-09-11 21:22:00,
2013-09-11 17:27:00,74.2,74.0,29.71,WNW,292,3.0,6.0,100,0.00,,,0.14,Rainwise IP-100,2013-09-11 21:27:00,
2013-09-11 17:33:00,73.9,74.0,29.72,WNW,292,1.0,5.0,100,0.00,,,0.14,Rainwise IP-100,2013-09-11 21:33:00,
2013-09-11 17:38:00,73.8,73.0,29.72,NNW,337,4.0,6.0,100,0.00,,,0.14,Rainwise IP-100,2013-09-11 21:38:00,
2013-09-11 17:43:00,73.7,73.0,29.72,North,360,2.0,5.0,100,0.00,,,0.14,Rainwise IP-100,2013-09-11 21:43:00,
2013-09-11 17:48:00,73.7,73.0,29.71,ESE,112,0.0,4.0,100,0.00,,,0.14,Rainwise IP-100,2013-09-11 21:48:00,
2013-09-11 17:53:00,73.7,73.0,29.70,SE,135,3.0,4.0,100,0.00,,,0.14,Rainwise IP-100,2013-09-11 21:53:00,
2013-09-11 17:58:00,73.6,73.0,29.71,SE,135,2.0,4.0,100,0.00,,,0.14,Rainwise IP-100,2013-09-11 21:58:00,
2013-09-11 18:03:00,73.5,73.0,29.71,SE,135,0.0,3.0,100,0.00,,,0.14,Rainwise IP-100,2013-09-11 22:03:00,
2013-09-11 18:08:00,73.3,72.0,29.72,SE,135,0.0,4.0,98,0.00,,,0.14,Rainwise IP-100,2013-09-11 22:08:00,
2013-09-11 18:14:00,73.2,73.0,29.71,SSE,157,3.0,4.0,100,0.00,,,0.14,Rainwise IP-100,2013-09-11 22:14:00,
2013-09-11 18:19:00,73.0,70.0,29.71,SSE,157,1.0,4.0,92,0.00,,,0.14,Rainwise IP-100,2013-09-11 22:19:00,
2013-09-11 18:24:00,72.9,69.0,29.71,SSE,157,1.0,3.0,86,0.00,,,0.14,Rainwise IP-100,2013-09-11 22:24:00,
2013-09-11 18:29:00,72.9,68.0,29.71,SSE,157,2.0,3.0,84,0.00,,,0.14,Rainwise IP-100,2013-09-11 22:29:00,
2013-09-11 18:34:00,73.0,68.0,29.72,SSE,157,2.0,3.0,84,0.00,,,0.14,Rainwise IP-100,2013-09-11 22:34:00,
2013-09-11 18:39:00,72.9,66.0,29.72,SSE,157,2.0,3.0,78,0.00,,,0.14,Rainwise IP-100,2013-09-11 22:39:00,
2013-09-11 18:44:00,72.8,66.0,29.72,SSE,157,1.0,3.0,81,0.00,,,0.14,Rainwise IP-100,2013-09-11 22:44:00,
2013-09-11 18:50:00,72.7,66.0,29.71,SSE,157,0.0,2.0,82,0.00,,,0.14,Rainwise IP-100,2013-09-11 22:50:00,
2013-09-11 18:55:00,72.6,66.0,29.72,SSE,157,0.0,0.0,82,0.00,,,0.14,Rainwise IP-100,2013-09-11 22:55:00,
2013-09-11 19:00:00,72.8,68.0,29.72,SSE,157,0.0,2.0,87,0.00,,,0.14,Rainwise IP-100,2013-09-11 23:00:00,
2013-09-11 19:05:00,72.8,68.0,29.72,SSE,157,1.0,2.0,86,0.00,,,0.14,Rainwise IP-100,2013-09-11 23:05:00,
2013-09-11 19:10:00,72.7,68.0,29.72,SSE,157,0.0,2.0,86,0.00,,,0.14,Rainwise IP-100,2013-09-11 23:10:00,
2013-09-11 19:15:00,72.7,70.0,29.71,NNW,337,3.0,3.0,93,0.00,,,0.14,Rainwise IP-100,2013-09-11 23:15:00,
2013-09-11 19:20:00,72.7,68.0,29.71,NNW,337,5.0,6.0,87,0.00,,,0.14,Rainwise IP-100,2013-09-11 23:20:00,
2013-09-11 19:25:00,72.7,68.0,29.71,NNW,337,0.0,6.0,86,0.00,,,0.14,Rainwise IP-100,2013-09-11 23:25:00,
2013-09-11 19:31:00,72.6,67.0,29.72,NNW,337,0.0,0.0,84,0.00,,,0.14,Rainwise IP-100,2013-09-11 23:31:00,
2013-09-11 19:36:00,72.6,66.0,29.72,SE,135,0.0,3.0,80,0.00,,,0.14,Rainwise IP-100,2013-09-11 23:36:00,
2013-09-11 19:41:00,72.3,66.0,29.72,SE,135,1.0,2.0,80,0.00,,,0.14,Rainwise IP-100,2013-09-11 23:41:00,
2013-09-11 19:46:00,72.2,64.0,29.72,SE,135,1.0,3.0,75,0.00,,,0.14,Rainwise IP-100,2013-09-11 23:46:00,
2013-09-11 19:51:00,72.2,64.0,29.74,ESE,112,1.0,6.0,76,0.00,,,0.14,Rainwise IP-100,2013-09-11 23:51:00,
2013-09-11 19:56:00,72.1,63.0,29.74,ESE,112,3.0,5.0,73,0.06,,,0.15,Rainwise IP-100,2013-09-11 23:56:00,
2013-09-11 20:01:00,71.9,63.0,29.74,SE,135,2.0,6.0,73,0.12,,,0.16,Rainwise IP-100,2013-09-12 00:01:00,
2013-09-11 20:07:00,71.8,61.0,29.75,SE,135,3.0,6.0,71,0.18,,,0.18,Rainwise IP-100,2013-09-12 00:07:00,
2013-09-11 20:12:00,71.8,62.0,29.75,East,90,3.0,7.0,72,0.12,,,0.18,Rainwise IP-100,2013-09-12 00:12:00,
2013-09-11 20:17:00,71.5,61.0,29.76,SE,135,3.0,7.0,71,0.00,,,0.18,Rainwise IP-100,2013-09-12 00:17:00,
2013-09-11 20:22:00,71.0,61.0,29.76,SE,135,1.0,7.0,71,0.06,,,0.19,Rainwise IP-100,2013-09-12 00:22:00,
2013-09-11 20:27:00,70.7,60.0,29.76,East,90,6.0,10.0,71,0.06,,,0.19,Rainwise IP-100,2013-09-12 00:27:00,
2013-09-11 20:32:00,70.6,63.0,29.76,East,90,4.0,10.0,78,0.00,,,0.19,Rainwise IP-100,2013-09-12 00:32:00,
2013-09-11 20:37:00,70.4,63.0,29.76,ESE,112,7.0,7.0,78,0.00,,,0.19,Rainwise IP-100,2013-09-12 00:37:00,
2013-09-11 20:42:00,70.3,64.0,29.76,NNW,337,0.0,9.0,82,0.00,,,0.19,Rainwise IP-100,2013-09-12 00:42:00,
2013-09-11 20:48:00,70.2,63.0,29.77,East,90,1.0,8.0,80,0.00,,,0.19,Rainwise IP-100,2013-09-12 00:48:00,
2013-09-11 20:53:00,70.1,64.0,29.77,SE,135,4.0,8.0,82,0.00,,,0.19,Rainwise IP-100,2013-09-12 00:53:00,
2013-09-11 20:58:00,69.9,64.0,29.78,SE,135,4.0,6.0,83,0.00,,,0.19,Rainwise IP-100,2013-09-12 00:58:00,
2013-09-11 21:03:00,69.9,64.0,29.78,ENE,67,4.0,6.0,82,0.00,,,0.19,Rainwise IP-100,2013-09-12 01:03:00,
2013-09-11 21:08:00,69.8,63.0,29.76,SSE,157,3.0,6.0,80,0.00,,,0.19,Rainwise IP-100,2013-09-12 01:08:00,
2013-09-11 21:13:00,69.7,62.0,29.76,SSE,157,3.0,5.0,78,0.00,,,0.19,Rainwise IP-100,2013-09-12 01:13:00,
2013-09-11 21:18:00,69.6,61.0,29.75,SSE,157,3.0,5.0,76,0.00,,,0.19,Rainwise IP-100,2013-09-12 01:18:00,
2013-09-11 21:24:00,69.5,61.0,29.75,East,90,1.0,6.0,76,0.00,,,0.19,Rainwise IP-100,2013-09-12 01:24:00,
2013-09-11 21:29:00,69.4,61.0,29.74,East,90,2.0,3.0,76,0.00,,,0.19,Rainwise IP-100,2013-09-12 01:29:00,
2013-09-11 21:34:00,69.3,61.0,29.74,East,90,1.0,4.0,76,0.00,,,0.19,Rainwise IP-100,2013-09-12 01:34:00,
2013-09-11 21:39:00,69.2,61.0,29.72,ENE,67,1.0,3.0,75,0.00,,,0.19,Rainwise IP-100,2013-09-12 01:39:00,
2013-09-11 21:44:00,68.9,61.0,29.72,WNW,292,0.0,2.0,77,0.00,,,0.19,Rainwise IP-100,2013-09-12 01:44:00,
2013-09-11 21:49:00,68.9,61.0,29.72,WSW,247,1.0,3.0,77,0.00,,,0.19,Rainwise IP-100,2013-09-12 01:49:00,
2013-09-11 21:54:00,68.9,60.0,29.72,ESE,112,2.0,5.0,75,0.00,,,0.19,Rainwise IP-100,2013-09-12 01:54:00,
2013-09-11 21:59:00,68.9,60.0,29.72,SE,135,1.0,4.0,73,0.00,,,0.19,Rainwise IP-100,2013-09-12 01:59:00,
2013-09-11 22:05:00,68.8,59.0,29.73,SE,135,3.0,4.0,73,0.00,,,0.19,Rainwise IP-100,2013-09-12 02:05:00,
2013-09-11 22:10:00,68.7,59.0,29.73,SSE,157,4.0,6.0,73,0.00,,,0.19,Rainwise IP-100,2013-09-12 02:10:00,
2013-09-11 22:15:00,68.6,59.0,29.73,SSE,157,1.0,5.0,73,0.00,,,0.19,Rainwise IP-100,2013-09-12 02:15:00,
2013-09-11 22:20:00,68.8,61.0,29.74,SSE,157,0.0,2.0,78,0.00,,,0.19,Rainwise IP-100,2013-09-12 02:20:00,
2013-09-11 22:25:00,68.8,61.0,29.74,SSE,157,2.0,2.0,78,0.00,,,0.19,Rainwise IP-100,2013-09-12 02:25:00,
2013-09-11 22:30:00,68.8,60.0,29.74,SSE,157,0.0,3.0,76,0.00,,,0.19,Rainwise IP-100,2013-09-12 02:30:00,
2013-09-11 22:35:00,68.7,61.0,29.74,SSE,157,0.0,1.0,78,0.00,,,0.19,Rainwise IP-100,2013-09-12 02:35:00,
2013-09-11 22:41:00,68.8,61.0,29.74,SE,135,1.0,2.0,77,0.00,,,0.19,Rainwise IP-100,2013-09-12 02:41:00,
2013-09-11 22:46:00,68.8,60.0,29.74,SE,135,1.0,4.0,76,0.00,,,0.19,Rainwise IP-100,2013-09-12 02:46:00,
2013-09-11 22:51:00,68.8,60.0,29.74,SE,135,2.0,4.0,75,0.00,,,0.19,Rainwise IP-100,2013-09-12 02:51:00,
2013-09-11 22:56:00,68.7,60.0,29.74,SE,135,2.0,4.0,76,0.00,,,0.19,Rainwise IP-100,2013-09-12 02:56:00,
2013-09-11 23:01:00,68.4,59.0,29.74,SSE,157,2.0,3.0,71,0.00,,,0.19,Rainwise IP-100,2013-09-12 03:01:00,
2013-09-11 23:06:00,68.4,59.0,29.73,SE,135,0.0,3.0,72,0.00,,,0.19,Rainwise IP-100,2013-09-12 03:06:00,
2013-09-11 23:11:00,68.3,59.0,29.74,SE,135,0.0,2.0,72,0.00,,,0.19,Rainwise IP-100,2013-09-12 03:11:00,
2013-09-11 23:16:00,68.4,59.0,29.73,SE,135,3.0,3.0,71,0.00,,,0.19,Rainwise IP-100,2013-09-12 03:16:00,
2013-09-11 23:22:00,68.3,58.0,29.74,SE,135,1.0,3.0,71,0.00,,,0.19,Rainwise IP-100,2013-09-12 03:22:00,
2013-09-11 23:27:00,68.4,59.0,29.73,SE,135,0.0,3.0,71,0.00,,,0.19,Rainwise IP-100,2013-09-12 03:27:00,
2013-09-11 23:32:00,68.4,59.0,29.73,ENE,67,0.0,3.0,71,0.00,,,0.19,Rainwise IP-100,2013-09-12 03:32:00,
2013-09-11 23:37:00,68.3,59.0,29.72,ENE,67,1.0,1.0,73,0.00,,,0.19,Rainwise IP-100,2013-09-12 03:37:00,
2013-09-11 23:42:00,68.3,58.0,29.72,East,90,1.0,3.0,71,0.00,,,0.19,Rainwise IP-100,2013-09-12 03:42:00,
2013-09-11 23:47:00,68.3,58.0,29.72,ESE,112,1.0,3.0,71,0.00,,,0.19,Rainwise IP-100,2013-09-12 03:47:00,
2013-09-11 23:52:00,68.3,57.0,29.72,ESE,112,0.0,3.0,70,0.00,,,0.19,Rainwise IP-100,2013-09-12 03:52:00,
2013-09-11 23:58:00,68.3,58.0,29.71,ESE,112,1.0,2.0,71,0.00,,,0.19,Rainwise IP-100,2013-09-12 03:58:00,